When you browse on this site, cookies collect data to enhance your experience and personalize the content and advertising you see.
Visit our Privacy Policy to learn more. By continuing to use the site, you agree to this use of cookies and data.
  • In Hungary
  • List of Countries
  • For 7 days
  • Water Temperature
  • Satellite Maps
  • Weather Map
  • News
  • Weather Widgets
  • user-avatar
    Login

    Hourly Weather Strzyze

    Today, 16 January, Wednesday

    Time Temperature Precipitation Wind Pressure Humidity
    00:00 -4°C° 0.7 mm 2 mps 734 mmHg 97%
    01:00 -2°C° 0 mm 1 mps 735 mmHg 97%
    02:00 -3°C° 0.1 mm 1 mps 735 mmHg 96%
    03:00 -3°C° 0.1 mm 1 mps 736 mmHg 96%
    04:00 -5°C° 0.1 mm 2 mps 737 mmHg 95%
    05:00 -5°C° 0 mm 2 mps 738 mmHg 94%
    06:00 -5°C° 0 mm 2 mps 738 mmHg 94%
    07:00 -6°C° 0 mm 3 mps 739 mmHg 93%
    08:00 -5°C° 0 mm 3 mps 739 mmHg 92%
    09:00 -4°C° 0 mm 3 mps 740 mmHg 92%
    10:00 -2°C° 0 mm 2 mps 740 mmHg 92%
    11:00 -2°C° 0 mm 3 mps 740 mmHg 93%
    12:00 -1°C° 0 mm 3 mps 740 mmHg 95%
    13:00 0°C° 0 mm 3 mps 740 mmHg 96%
    14:00 0°C° 0.1 mm 3 mps 740 mmHg 97%
    15:00 -1°C° 0.1 mm 4 mps 740 mmHg 97%
    16:00 -1°C° 0.1 mm 4 mps 740 mmHg 97%
    17:00 -1°C° 0.1 mm 4 mps 739 mmHg 96%
    18:00 0°C° 0.1 mm 5 mps 739 mmHg 96%
    19:00 0°C° 0.1 mm 5 mps 739 mmHg 95%
    20:00 0°C° 0 mm 5 mps 739 mmHg 96%
    21:00 -1°C° 0 mm 6 mps 739 mmHg 96%
    22:00 -1°C° 0 mm 6 mps 739 mmHg 97%
    23:00 -1°C° 0.2 mm 6 mps 738 mmHg 97%

    Tomorrow, 17 January, Thursday

    Time Temperature Precipitation Wind Pressure Humidity
    00:00 -1°C° 0.2 mm 6 mps 738 mmHg 96%
    01:00 -1°C° 0.2 mm 6 mps 738 mmHg 96%
    02:00 -1°C° 0.2 mm 6 mps 737 mmHg 95%
    03:00 -1°C° 0.2 mm 7 mps 736 mmHg 94%
    04:00 -1°C° 0.2 mm 7 mps 736 mmHg 93%
    05:00 -1°C° 0.4 mm 7 mps 735 mmHg 91%
    06:00 -1°C° 0.4 mm 8 mps 735 mmHg 89%
    07:00 -1°C° 0.4 mm 8 mps 734 mmHg 88%
    08:00 -1°C° 0.2 mm 8 mps 734 mmHg 87%
    09:00 -1°C° 0.2 mm 8 mps 734 mmHg 86%
    10:00 -1°C° 0.2 mm 8 mps 734 mmHg 85%
    11:00 -1°C° 0.1 mm 8 mps 734 mmHg 86%
    12:00 0°C° 0.1 mm 8 mps 734 mmHg 87%
    13:00 0°C° 0.1 mm 8 mps 734 mmHg 88%
    14:00 0°C° 0 mm 7 mps 734 mmHg 85%
    15:00 -1°C° 0 mm 7 mps 734 mmHg 82%
    16:00 -1°C° 0 mm 7 mps 735 mmHg 79%
    17:00 -1°C° 0 mm 6 mps 735 mmHg 79%
    18:00 -1°C° 0 mm 6 mps 735 mmHg 80%
    19:00 -1°C° 0 mm 6 mps 735 mmHg 81%
    20:00 -1°C° 0 mm 6 mps 735 mmHg 82%
    21:00 -1°C° 0 mm 6 mps 735 mmHg 84%
    22:00 0°C° 0 mm 5 mps 734 mmHg 85%
    23:00 -1°C° 0.1 mm 6 mps 734 mmHg 85%

    Day after tomorrow, 18 January, Friday

    Time Temperature Precipitation Wind Pressure Humidity
    00:00 -2°C° 0.1 mm 6 mps 734 mmHg 84%
    01:00 -2°C° 0.1 mm 7 mps 734 mmHg 84%
    02:00 -2°C° 0 mm 7 mps 734 mmHg 82%
    03:00 -3°C° 0 mm 7 mps 734 mmHg 81%
    04:00 -4°C° 0 mm 7 mps 734 mmHg 79%
    05:00 -5°C° 0.6 mm 8 mps 735 mmHg 83%
    06:00 -4°C° 0.6 mm 8 mps 735 mmHg 86%
    07:00 -4°C° 0.6 mm 8 mps 736 mmHg 90%
    08:00 -3°C° 0.1 mm 7 mps 737 mmHg 88%
    09:00 -4°C° 0.1 mm 6 mps 738 mmHg 86%
    10:00 -5°C° 0.1 mm 6 mps 739 mmHg 84%
    11:00 -4°C° 0.2 mm 6 mps 741 mmHg 82%
    12:00 -4°C° 0.2 mm 7 mps 742 mmHg 81%
    13:00 -4°C° 0.2 mm 7 mps 744 mmHg 79%
    14:00 -4°C° 0.1 mm 7 mps 745 mmHg 79%
    15:00 -4°C° 0.1 mm 6 mps 746 mmHg 80%
    16:00 -5°C° 0.1 mm 6 mps 747 mmHg 80%
    17:00 -5°C° 0 mm 5 mps 747 mmHg 81%
    18:00 -5°C° 0 mm 5 mps 748 mmHg 83%
    19:00 -6°C° 0 mm 5 mps 748 mmHg 85%
    20:00 -6°C° 0 mm 5 mps 749 mmHg 85%
    21:00 -6°C° 0 mm 5 mps 749 mmHg 85%
    22:00 -6°C° 0 mm 5 mps 750 mmHg 84%
    23:00 -6°C° 0 mm 5 mps 750 mmHg 85%

    19 January, Saturday

    Time Temperature Precipitation Wind Pressure Humidity
    00:00 -6°C° 0 mm 5 mps 750 mmHg 86%
    01:00 -5°C° 0 mm 4 mps 751 mmHg 87%
    02:00 -5°C° 0 mm 4 mps 750 mmHg 88%
    03:00 -5°C° 0 mm 4 mps 750 mmHg 89%
    04:00 -5°C° 0 mm 4 mps 750 mmHg 91%
    05:00 -6°C° 0.3 mm 5 mps 750 mmHg 90%
    06:00 -5°C° 0.3 mm 6 mps 750 mmHg 89%
    07:00 -4°C° 0.3 mm 6 mps 750 mmHg 88%
    08:00 -4°C° 0 mm 6 mps 750 mmHg 89%
    09:00 -4°C° 0 mm 6 mps 751 mmHg 89%
    10:00 -4°C° 0 mm 5 mps 751 mmHg 90%
    11:00 -4°C° 0 mm 5 mps 751 mmHg 89%
    12:00 -4°C° 0 mm 5 mps 751 mmHg 88%
    13:00 -2°C° 0 mm 4 mps 751 mmHg 88%
    14:00 -3°C° 0 mm 4 mps 751 mmHg 89%
    15:00 -4°C° 0 mm 3 mps 751 mmHg 91%
    16:00 -5°C° 0 mm 3 mps 751 mmHg 93%
    17:00 -5°C° 0 mm 3 mps 751 mmHg 93%
    18:00 -5°C° 0 mm 3 mps 751 mmHg 94%
    19:00 -5°C° 0 mm 3 mps 751 mmHg 94%
    20:00 -5°C° 0 mm 3 mps 751 mmHg 95%
    21:00 -5°C° 0 mm 3 mps 751 mmHg 95%
    22:00 -6°C° 0 mm 3 mps 751 mmHg 95%
    23:00 -6°C° 0 mm 3 mps 751 mmHg 95%

    20 January, Sunday

    Time Temperature Precipitation Wind Pressure Humidity
    00:00 -6°C° 0 mm 3 mps 751 mmHg 94%
    01:00 -6°C° 0 mm 3 mps 751 mmHg 93%
    02:00 -5°C° 0.2 mm 3 mps 751 mmHg 93%
    03:00 -5°C° 0.2 mm 4 mps 751 mmHg 93%
    04:00 -4°C° 0.2 mm 4 mps 750 mmHg 93%
    05:00 -4°C° 0.4 mm 4 mps 750 mmHg 93%
    06:00 -4°C° 0.4 mm 4 mps 750 mmHg 94%
    07:00 -4°C° 0.4 mm 4 mps 750 mmHg 94%
    08:00 -4°C° 0.1 mm 4 mps 750 mmHg 94%
    09:00 -3°C° 0.1 mm 4 mps 750 mmHg 94%
    10:00 -3°C° 0.1 mm 4 mps 750 mmHg 94%
    11:00 -3°C° 0.1 mm 4 mps 750 mmHg 89%
    12:00 -2°C° 0.1 mm 4 mps 750 mmHg 85%
    13:00 -2°C° 0.1 mm 4 mps 750 mmHg 80%
    14:00 -3°C° 0.1 mm 4 mps 750 mmHg 82%
    15:00 -4°C° 0.1 mm 4 mps 751 mmHg 84%
    16:00 -5°C° 0.1 mm 3 mps 751 mmHg 85%
    17:00 -6°C° 0 mm 3 mps 751 mmHg 86%
    18:00 -6°C° 0 mm 3 mps 752 mmHg 87%
    19:00 -7°C° 0 mm 3 mps 753 mmHg 88%
    20:00 -7°C° 0 mm 3 mps 753 mmHg 89%
    21:00 -7°C° 0 mm 3 mps 754 mmHg 89%
    22:00 -7°C° 0 mm 3 mps 754 mmHg 89%
    23:00 -7°C° 0 mm 3 mps 754 mmHg 90%

    21 January, Monday

    Time Temperature Precipitation Wind Pressure Humidity
    00:00 -7°C° 0 mm 3 mps 755 mmHg 90%
    01:00 -7°C° 0 mm 3 mps 755 mmHg 90%
    02:00 -6°C° 0.1 mm 3 mps 756 mmHg 91%
    03:00 -6°C° 0.1 mm 3 mps 756 mmHg 91%
    04:00 -6°C° 0.1 mm 3 mps 756 mmHg 91%
    05:00 -6°C° 0 mm 3 mps 756 mmHg 91%
    06:00 -7°C° 0 mm 3 mps 757 mmHg 91%
    07:00 -7°C° 0 mm 3 mps 757 mmHg 91%
    08:00 -5°C° 0 mm 2 mps 758 mmHg 91%
    09:00 -5°C° 0 mm 2 mps 758 mmHg 91%
    10:00 -4°C° 0 mm 2 mps 758 mmHg 92%
    11:00 -3°C° 0.1 mm 2 mps 759 mmHg 90%
    12:00 -4°C° 0.1 mm 3 mps 759 mmHg 88%
    13:00 -2°C° 0.1 mm 3 mps 759 mmHg 86%
    14:00 -4°C° 0 mm 3 mps 759 mmHg 85%
    15:00 -5°C° 0 mm 3 mps 759 mmHg 85%
    16:00 -5°C° 0 mm 3 mps 759 mmHg 85%
    17:00 -6°C° 0 mm 3 mps 759 mmHg 86%
    18:00 -6°C° 0 mm 3 mps 759 mmHg 86%
    19:00 -6°C° 0 mm 3 mps 759 mmHg 87%
    20:00 -6°C° 0 mm 3 mps 759 mmHg 87%
    21:00 -6°C° 0 mm 3 mps 759 mmHg 86%
    22:00 -7°C° 0 mm 4 mps 758 mmHg 86%
    23:00 -7°C° 0 mm 4 mps 758 mmHg 87%
    Show more